sat.trackr.live / text

‹ back to catalog

UNKNOWN

NORAD 87587

UNKNOWN UNKNOWN UNKNOWN

§ Identity

Operator
Country
Launch date
Launch site
Launch vehicle
Mass (kg)
RCS (m²)

External: N2YO · Heavens-Above

§ Orbital elements

Epoch: 2026-05-22T07:54:50.077728Z

Period
99.99 min
Inclination
74.0227°
Eccentricity
0.0019983
Mean motion
14.40147184 rev/d
Perigee alt
743.8 km
Apogee alt
772.3 km
Semi-major
7,136.1 km
B*
3.7481e-5
RAAN
165.9060°
Arg perigee
166.8414°
Mean anomaly
193.3266°
Rev number
65,692

§ Raw data

UNKNOWN1 87587U          26142.32974627  .00000092  00000+0  37481-4 0  99972 87587  74.0227 165.9060 0019983 166.8414 193.3266 14.40147184656928

JSON: /api/v1/satellites/87587 · /tle

For live sub-satellite position, see the globe view (requires WebGL).

§ Visibility from observer

Set your observer location to see the next 7 days of passes ≥ 10°. The values pass through the URL so the page stays shareable.

No JS? Fill the form by hand. The geolocation button needs JavaScript.